Zurück zum Katalog

STARLINK-34395

AktivKommunikationVLEO
NORAD 64668·PAYLOAD·🇺🇸 United States

Gestartet Jun 28, 2025 von Cape Canaveral Space Force Station

Loading…

Nächste Überflüge (nächste 24 Stunden)

TLE

AktuellSource: CelesTrak SupGP

Epoche: Sep 14, 2026, 22:26 UTC

1 64668C 25139E   26257.93520833  .00012036  00000+0  35575-3 0  2571
2 64668  53.1598 323.9919 0001274  87.9649 328.4240 15.34373137    17

Verfolge STARLINK-34395 in Echtzeit mit AllMySat

Download on the App Store